Regional Weather Roundup
Issued by NWS

Home | Current Version | Previous Version | Graphics & Text | Print | Product List | Glossary On
Versions: 1 2 3 4 5 6 7 8 9 10 11 12 13 14 15 16 17 18 19 20 21 22 23 24 25 26 27 28 29 30 31 32 33 34 35 36 37 38 39 40 41 42 43 44 45 46 47 48 49 50
000
ASUS43 KLOT 040608
RWRIL

ILLINOIS REGIONAL WEATHER ROUNDUP
NATIONAL WEATHER SERVICE CHICAGO/ROMEOVILLE IL
100 AM CDT WED MAY 04 2016

NOTE: "FAIR" INDICATES FEW OR NO CLOUDS BELOW 12,000 FEET WITH NO
SIGNIFICANT WEATHER AND/OR OBSTRUCTIONS TO VISIBILITY.

* THESE STATIONS ARE NOT UNDER NWS QUALITY CONTROL. THEY ALSO MAY NOT
  REPORT WEATHER SUCH AS PRECIPITATION OR FOG.

ILZ001-002-007-009-015-016-024-040700-
NORTHWEST ILLINOIS

CITY           SKY/WX    TMP DP  RH WIND       PRES   REMARKS
MOLINE         TSTM      54  47  77 N18G31    29.71R
6HR MIN TEMP:  56; 6HR MAX TEMP:  65; 6HR PCP:  0.04;

STERLING*      CLOUDY    52  48  87 N15       29.73R
SAVANNA*       CLOUDY    50  48  92 SE3       29.69F
$$

ILZ003-004-008-010-011-017-018-040700-
NORTH CENTRAL ILLINOIS

CITY           SKY/WX    TMP DP  RH WIND       PRES   REMARKS
ROCKFORD       TSTM      50  46  86 N17       29.72S
6HR MIN TEMP:  50; 6HR MAX TEMP:  63; 6HR PCP:  0.10;

FREEPORT*      CLOUDY    48  46  92 E8        29.69F
ROCHELLE*      TSTM      50  47  90 N22       29.70R
DE KALB*       CLOUDY    51  47  87 N18G36    29.69R
$$

ILZ005-006-012>014-019>023-040700-
NORTHEAST ILLINOIS

CITY           SKY/WX    TMP DP  RH WIND       PRES   REMARKS
CHICAGO-OHARE  CLOUDY    57  42  57 SW15      29.61F
6HR MIN TEMP:  57; 6HR MAX TEMP:  63; 6HR PCP: TRACE;

CHICAGO-MIDWAY CLOUDY    59  40  49 SW16G24   29.64F
6HR MIN TEMP:  59; 6HR MAX TEMP:  65;

AURORA         TSTM      53  47  79 SE8       29.65S
6HR MIN TEMP:  53; 6HR MAX TEMP:  63; 6HR PCP:  0.12;

LANSING*       CLOUDY    56  39  52 SW13G18   29.67F
JOLIET*        LGT RAIN  54  49  84 SE8       29.66F
WAUKEGAN       LGT RAIN  52  47  83 N12G25    29.64R
6HR MIN TEMP:  52; 6HR MAX TEMP:  64; 6HR PCP: TRACE;

DUPAGE AIRPORT TSTM      54  44  69 SW12G21   29.62F
6HR MIN TEMP:  54; 6HR MAX TEMP:  63; 6HR PCP: TRACE;

KANKAKEE*      CLOUDY    55  42  61 SW14      29.70F
WHEELING       CLOUDY    56  44  64 SW10      29.62F
6HR MIN TEMP:  56; 6HR MAX TEMP:  64; 6HR PCP:  0.01;

MORRIS*        CLOUDY    57  43  59 SW17      29.64F
ROMEOVILLE*    HVY RAIN  52  46  81 SW7       29.67S
NORTHERLY ISL    N/A     59  38  45 SW10        N/A
NORTHERLY ISL    N/A     59  38  45 SW10        N/A
$$

LMZ740>746-040700-
SOUTHERN LAKE MICHIGAN

STATION/POSITION SKY/WX   TEMP    WIND        PRES    VSBY  WAVE
                          AIR SEA DIR/SP/G                  HT/PER
                          (F)     (DEG/KT/KT) (MB)    (MI)  (FT/S)
SOUTHERN BUOY              46 41  210/ 12/ 14 1002.4F         1/ 3
HARRISON CRIB              61     210/ 19/ 22   N/A
BURNHAM HARBOR             59     200/  5/ 11   N/A
CALUMET HARBOR             59     210/  8/ 11 1004.4F
BURNS HARBOR               59     210/ 16/ 21 1004.7F
MICHIGAN CITY              59     180/ 13/ 16   N/A
ST. JOSEPH                 54 49                N/A           1/ 2
$$

ILZ025>027-034>036-040-047-049-050-058-095>099-040700-
WEST-CENTRAL ILLINOIS

CITY           SKY/WX    TMP DP  RH WIND       PRES   REMARKS
QUINCY         PTCLDY    55  43  63 SW10      29.77F
GALESBURG*     CLOUDY    55  45  68 SW14      29.68F
MACOMB*        PTCLDY    56  45  66 SW13      29.74F
JACKSONVILLE*  CLOUDY    56  44  64 SW12      29.78F
PITTSFIELD*    CLEAR     56  45  65 SW8       29.80F
$$

ILZ028>032-037-038-041>044-048-051>054-059>061-040700-
CENTRAL ILLINOIS

CITY           SKY/WX    TMP DP  RH WIND       PRES   REMARKS
PONTIAC        LGT RAIN  55  47  74 NE6       29.71F
BLOOMINGTON    LGT RAIN  55  46  71 SW16      29.73F
DECATUR        CLOUDY    55  43  63 SW14      29.78F
PEORIA         CLOUDY    56  43  61 SW10      29.71F
6HR MIN TEMP:  56; 6HR MAX TEMP:  64;

LACON*         CLOUDY    57  40  54 SW10      29.67F
LINCOLN*       CLOUDY    58  45  63 S5        29.75F
SPRINGFIELD    CLOUDY    58  44  60 SW13      29.77F
6HR MIN TEMP:  57; 6HR MAX TEMP:  65;

TAYLORVILLE    CLOUDY    54  44  68 SW14      29.80F
6HR MIN TEMP:  54; 6HR MAX TEMP:  61;

$$

ILZ033-039-045-046-055>057-062-063-040700-
EAST-CENTRAL ILLINOIS

CITY           SKY/WX    TMP DP  RH WIND       PRES   REMARKS
CHAMPAIGN      PTCLDY    52  45  77 SW13      29.77F
RANTOUL*       MOCLDY    54  47  77 SW13      29.74F
MATTOON        CLOUDY    54  42  64 SW9       29.79F
PARIS*         MOCLDY    51  47  84 SW7       29.80F
$$

ILZ079-100>102-040700-
SOUTHWEST ILLINOIS

CITY           SKY/WX    TMP DP  RH WIND       PRES   REMARKS
ALTON          CLEAR     54  44  69 S10       29.84F
BELLEVILLE     PTCLDY    52  46  77 SW7       29.85F
CAHOKIA*       CLEAR     55  43  63 SW5       29.85F
SPARTA*        CLEAR     52  46  79 SW7       29.89F
$$

ILZ064>066-069>071-074>076-080>082-084>086-088>090-092>094-040700-
SOUTH-CENTRAL ILLINOIS

CITY           SKY/WX    TMP DP  RH WIND       PRES   REMARKS
CARBONDALE     CLEAR     47  43  86 S5        29.90F
6HR MIN TEMP:  46; 6HR MAX TEMP:  60;

CAIRO*         CLEAR     53  48  84 SW5       29.92S
EFFINGHAM*     CLOUDY    52  46  79 S6        29.84F
MARION         CLEAR     46  45  93 S6        29.90F
MT. VERNON     CLEAR     48  43  81 CALM      29.87F
CENTRALIA*     PTCLDY    52  47  83 SW8       29.85F
SALEM*         PTCLDY    52  46  79 S6        29.85F
METROPOLIS*    CLEAR     51  50  97 CALM      29.92S
$$

ILZ067-068-072-073-078-083-087-091-040700-
SOUTHEAST ILLINOIS

CITY           SKY/WX    TMP DP  RH WIND       PRES   REMARKS
LAWRENCEVILLE  PTCLDY    51  46  83 SW7       29.84F
FLORA*         PTCLDY    52  45  77 SW7       29.86F
FAIRFIELD*     CLEAR     48  46  90 CALM      29.85F
HARRISBURG*    CLEAR     49  47  90 SW3       29.89F
ROBINSON*      PTCLDY    51  45  77 SW9       29.83F
CARMI*         CLEAR     52  46  82 SW8       29.87F
$$

ABBREVIATIONS USED IN REMARKS
   TC - TEMPERATURE IN CELSIUS
  WCI - WIND CHILL INDEX
   HX - HEAT INDEX
  VSB - VISIBILITY
$$




USA.gov is the U.S. government's official web portal to all federal, state and local government web resources and services.